Springfield, VT

8:50 PM EDT on September 23, 2017 (GMT -0400)
Hartness State

Weather History for KVSF - October, 2012

Change the Weather History Date:

Wednesday, October 10, 2012

  Actual Average Record
Temperature  
Mean Temperature 51 °F 49 °F  
Max Temperature 56 °F 61 °F 81 °F (2011)
Min Temperature 45 °F 37 °F 30 °F (2000)
Degree Days  
Heating Degree Days 14 16  
Month to date heating degree days 94 144  
Since 1 July heating degree days 280 396  
Cooling Degree Days 0 0  
Month to date cooling degree days 1 0  
Year to date cooling degree days 640 344  
Growing Degree Days 2 (Base 50)    
Moisture  
Dew Point 48 °F    
Average Humidity 74    
Maximum Humidity 93    
Minimum Humidity 54    
Precipitation  
Precipitation 0.29 in 0.14 in 0.54 in (1996)
Month to date precipitation 0.76 1.55  
Year to date precipitation 26.75 33.68  
Sea Level Pressure  
Sea Level Pressure 29.90 in    
Wind  
Wind Speed 2 mph (SSW)    
Max Wind Speed 20 mph    
Max Gust Speed 41 mph    
Visibility 4 miles    
Events Rain    
T = Trace of Precipitation, MM = Missing Value Source: NWS Daily Summary

Daily Weather History Graph

Daily Weather History Graph

Search for Another Location

Airport or City:

Trip Planner

Search our weather history database for the weather conditions in past years. The results will help you decide how hot, cold, wet, or windy it might be!

Date:

Astronomy

Oct. 10, 2012 Rise Set
Actual Time 6:58 AM EDT 6:14 PM EDT
Civil Twilight 6:29 AM EDT 6:43 PM EDT
Nautical Twilight 5:56 AM EDT 7:16 PM EDT
Astronomical Twilight 5:23 AM EDT 7:49 PM EDT
Moon 1:23 AM EDT (10/10) 3:23 PM EDT (10/10)
Length of Visible Light 12h 13m
Length of Day
11h 16m
Waning Crescent, 27% of the Moon is Illuminated
Oct 10
Waning Crescent
Oct 15
New
Oct 21
First Quarter
Oct 29
Full
Nov 6
Last Quarter

Hourly Weather History & Observations

Time (EDT) Temp. Dew Point Humidity Pressure Visibility Wind Dir Wind Speed Gust Speed Precip Events Conditions
12:54 AM 51.1 °F 42.1 °F 71% 30.16 in 10.0 mi SE 4.6 mph - N/A   Overcast
1:54 AM 50.0 °F 42.1 °F 74% 30.15 in 10.0 mi Calm Calm - N/A   Overcast
2:45 AM 50.0 °F 41.0 °F 71% 30.10 in 10.0 mi ESE 4.6 mph - N/A   Overcast
2:54 AM 50.0 °F 39.9 °F 68% 30.11 in 10.0 mi SSE 3.5 mph - N/A   Overcast
3:54 AM 50.0 °F 43.0 °F 77% 30.10 in 10.0 mi Calm Calm - N/A   Overcast
4:42 AM 48.2 °F 44.6 °F 87% 30.09 in 10.0 mi Calm Calm - N/A   Overcast
4:54 AM 48.9 °F 44.1 °F 83% 30.09 in 10.0 mi Calm Calm - N/A   Overcast
5:54 AM 50.0 °F 42.1 °F 74% 30.09 in 10.0 mi Calm Calm - N/A   Overcast
6:42 AM 48.2 °F 44.6 °F 87% 30.06 in 10.0 mi Calm Calm - N/A   Overcast
6:54 AM 48.9 °F 45.0 °F 86% 30.06 in 10.0 mi Calm Calm - N/A   Overcast
7:38 AM 48.2 °F 44.6 °F 87% 30.05 in 1.8 mi Calm Calm - 0.00 in Rain Light Rain
7:54 AM 48.0 °F 45.0 °F 89% 30.06 in 1.2 mi Calm Calm - 0.01 in Rain Light Rain
8:01 AM 48.2 °F 44.6 °F 87% 30.05 in 1.2 mi Calm Calm - 0.01 in Rain Light Rain
8:09 AM 48.2 °F 44.6 °F 87% 30.05 in 1.2 mi Calm Calm - 0.02 in Rain Light Rain
8:54 AM 48.9 °F 45.0 °F 86% 30.05 in 1.8 mi Calm Calm - 0.04 in Rain Light Rain
9:03 AM 48.2 °F 46.4 °F 93% 30.03 in 2.0 mi Calm Calm - 0.00 in Rain Light Rain
9:22 AM 48.2 °F 46.4 °F 93% 30.02 in 2.0 mi Calm Calm - 0.00 in   Overcast
9:36 AM 48.2 °F 46.4 °F 93% 30.01 in 1.8 mi Calm Calm - 0.01 in   Overcast
9:46 AM 48.2 °F 46.4 °F 93% 30.01 in 1.8 mi Calm Calm - 0.01 in Rain Light Rain
9:54 AM 48.9 °F 45.0 °F 86% 30.01 in 2.0 mi Calm Calm - 0.01 in Rain Light Rain
10:00 AM 48.2 °F 44.6 °F 87% 30.00 in 3.0 mi Calm Calm - 0.00 in Rain Light Rain
10:08 AM 48.2 °F 46.4 °F 93% 29.99 in 3.0 mi Calm Calm - 0.00 in   Overcast
10:36 AM 48.2 °F 46.4 °F 93% 29.98 in 2.5 mi Calm Calm - 0.01 in   Overcast
10:54 AM 50.0 °F 46.0 °F 86% 29.98 in 3.0 mi Calm Calm - 0.01 in   Overcast
11:54 AM 51.1 °F 48.0 °F 89% 29.94 in 4.0 mi Calm Calm - 0.01 in   Overcast
12:33 PM 51.8 °F 46.4 °F 82% 29.90 in 1.8 mi Calm Calm - 0.01 in Rain Light Rain
12:40 PM 51.8 °F 48.2 °F 88% 29.90 in 1.8 mi Calm Calm - 0.02 in Rain Light Rain
12:51 PM 51.8 °F 48.2 °F 88% 29.88 in 2.5 mi Calm Calm - 0.03 in Rain Light Rain
12:54 PM 52.0 °F 48.9 °F 89% 29.89 in 2.5 mi Calm Calm - 0.03 in Rain Light Rain
1:16 PM 53.6 °F 50.0 °F 88% 29.87 in 4.0 mi Calm Calm - 0.00 in   Overcast
1:25 PM 53.6 °F 50.0 °F 88% 29.86 in 3.0 mi Calm Calm - 0.01 in   Overcast
1:33 PM 53.6 °F 50.0 °F 88% 29.85 in 2.5 mi Calm Calm - 0.01 in Rain Light Rain
1:50 PM 53.6 °F 51.8 °F 94% 29.83 in 1.8 mi Calm Calm - 0.02 in Rain Light Rain
1:54 PM 54.0 °F 51.1 °F 90% 29.84 in 1.8 mi Calm Calm - 0.02 in Rain Light Rain
2:02 PM 53.6 °F 51.8 °F 94% 29.82 in 2.0 mi Calm Calm - 0.00 in Rain Light Rain
2:16 PM 53.6 °F 51.8 °F 94% 29.82 in 2.5 mi Variable 3.5 mph - 0.01 in Rain Light Rain
2:23 PM 53.6 °F 51.8 °F 94% 29.81 in 2.5 mi South 4.6 mph - 0.01 in Rain Light Rain
2:36 PM 53.6 °F 51.8 °F 94% 29.80 in 2.0 mi South 3.5 mph - 0.01 in   Overcast
2:54 PM 55.0 °F 52.0 °F 89% 29.80 in 2.0 mi South 3.5 mph - 0.02 in Rain Light Rain
3:01 PM 55.4 °F 51.8 °F 88% 29.80 in 1.8 mi South 4.6 mph - 0.00 in Rain Light Rain
3:08 PM 55.4 °F 51.8 °F 88% 29.79 in 3.0 mi Calm Calm - 0.01 in Rain Light Rain
3:12 PM 55.4 °F 51.8 °F 88% 29.79 in 3.0 mi Calm Calm - 0.01 in Rain Light Rain
3:16 PM 55.4 °F 51.8 °F 88% 29.79 in 1.8 mi Calm Calm - 0.01 in Rain Light Rain
3:27 PM 55.4 °F 51.8 °F 88% 29.79 in 1.8 mi Calm Calm - 0.02 in Rain Light Rain
3:37 PM 55.4 °F 53.6 °F 94% 29.78 in 1.5 mi Calm Calm - 0.03 in Rain Light Rain
3:47 PM 55.4 °F 51.8 °F 88% 29.78 in 2.0 mi Calm Calm - 0.04 in Rain Light Rain
3:54 PM 55.9 °F 54.0 °F 93% 29.79 in 1.2 mi Calm Calm - 0.05 in Rain Light Rain
4:16 PM 55.4 °F 53.6 °F 94% 29.77 in 1.2 mi Calm Calm - 0.02 in Rain Light Rain
4:34 PM 55.4 °F 53.6 °F 94% 29.76 in 1.2 mi Calm Calm - 0.03 in Rain Light Rain
4:54 PM 55.9 °F 53.1 °F 90% 29.76 in 1.2 mi Calm Calm - 0.05 in Rain Light Rain
5:09 PM 55.4 °F 53.6 °F 94% 29.75 in 3.0 mi ENE 3.5 mph - 0.01 in Rain Light Rain
5:54 PM 55.9 °F 52.0 °F 87% 29.74 in 10.0 mi Calm Calm - 0.01 in   Overcast
6:21 PM 55.4 °F 53.6 °F 94% 29.73 in 2.5 mi Calm Calm - 0.01 in Rain Light Rain
6:24 PM 55.4 °F 53.6 °F 94% 29.73 in 3.0 mi West 3.5 mph - 0.01 in Rain Light Rain
6:35 PM 55.4 °F 51.8 °F 88% 29.74 in 6.0 mi Calm Calm - 0.01 in Rain Light Rain
6:54 PM 55.9 °F 53.1 °F 90% 29.75 in 10.0 mi Calm Calm - 0.02 in   Overcast
7:05 PM 55.4 °F 53.6 °F 94% 29.73 in 10.0 mi Calm Calm - N/A   Overcast
7:54 PM 54.0 °F 48.9 °F 83% 29.75 in 9.0 mi Calm Calm - N/A   Scattered Clouds
8:54 PM 51.1 °F 46.9 °F 86% 29.76 in 10.0 mi WSW 3.5 mph - N/A   Overcast
9:54 PM 52.0 °F 42.1 °F 69% 29.78 in 10.0 mi NW 4.6 mph 18.4 mph N/A   Mostly Cloudy
10:54 PM 51.1 °F 37.9 °F 61% 29.81 in 10.0 mi NW 11.5 mph 26.5 mph N/A   Overcast
11:54 PM 51.1 °F 36.0 °F 56% 29.81 in 10.0 mi WNW 13.8 mph 21.9 mph N/A   Clear